Theta_e
333 334 334 335 336 335 334 335 334 331 328 327 327 327 327 328 328 328 329 329 329 329 328 327 327 329 332 332 332 332 331 331 330 330 330 329 330 328 326 327 328 330 331 330 330 329 329 329 329 328 328 326 325 327 329 328 326 326 323 317 314 315 314 314 318 319 317 315 315 318 318 318 318 318 318 318 319 318 318 318 318 318 318 318 318
335 335 334 335 336 334 334 334 334 331 330 328 328 328 329 327 328 329 330 331 330 329 328 327 328 329 331 332 332 332 332 333 332 331 331 331 331 329 327 327 328 329 330 330 330 330 330 328 329 329 328 327 325 325 327 327 326 326 326 323 318 316 313 314 316 317 317 317 316 316 317 318 319 318 317 317 318 318 318 318 318 318 318 318 317
336 336 336 336 335 334 333 334 332 330 329 329 328 329 330 328 328 330 331 332 330 329 328 328 328 329 330 331 331 330 330 332 332 332 331 330 331 330 329 328 328 329 329 330 329 330 330 327 327 328 327 327 327 325 325 326 327 327 327 326 324 321 318 316 314 313 315 317 316 314 315 317 317 317 316 317 318 318 318 318 318 318 317 317 317
336 336 335 335 334 333 333 333 332 331 330 329 328 330 331 329 329 330 331 331 330 328 328 328 327 328 329 330 330 329 330 332 332 331 330 329 329 328 329 328 328 329 329 330 328 328 330 329 329 329 328 328 328 327 326 324 324 326 327 328 327 326 325 322 320 316 314 314 313 312 315 316 315 316 316 316 317 316 317 317 316 317 317 317 317
336 335 334 335 334 333 333 332 332 332 332 330 329 331 332 331 330 331 331 331 330 329 328 328 327 327 328 329 329 330 332 332 332 331 331 330 327 325 327 327 328 329 329 329 328 327 330 330 330 331 330 329 328 328 327 325 325 324 326 327 327 327 327 326 325 320 316 314 313 314 317 316 315 315 314 315 314 313 315 316 315 316 317 317 317
335 334 334 335 335 334 333 332 331 332 332 330 330 331 332 333 332 331 330 330 331 330 328 328 328 327 327 328 328 329 330 331 331 331 331 331 328 327 327 325 326 327 328 328 328 327 328 329 330 331 332 331 330 328 327 327 327 326 326 326 325 326 327 327 326 323 318 315 313 315 316 316 317 314 312 314 312 311 315 316 315 316 316 317 317
334 334 334 335 335 334 333 332 332 332 331 330 330 330 331 333 333 331 331 331 330 330 328 327 328 328 327 328 328 328 329 330 330 330 331 331 330 330 328 325 326 325 325 327 328 328 328 329 330 330 330 331 331 330 328 328 329 328 328 326 325 326 327 328 327 324 320 316 313 314 314 315 318 317 313 312 309 311 315 315 315 316 316 316 317
334 335 335 335 334 333 332 333 334 333 332 330 330 330 331 332 332 331 330 331 331 330 329 328 328 328 328 328 328 328 329 328 328 328 329 329 330 330 329 328 327 326 325 326 328 329 327 327 328 328 329 329 330 331 331 330 329 329 329 328 327 326 327 328 327 326 323 318 315 315 315 314 316 317 316 312 308 310 313 313 315 317 316 316 316
334 335 336 335 333 333 332 333 334 333 332 331 331 332 333 332 331 330 330 330 331 330 329 329 328 328 328 328 328 328 328 328 327 327 326 326 327 328 328 329 328 327 327 327 328 329 328 327 327 327 327 327 328 329 330 332 331 331 330 330 329 328 328 328 328 327 325 322 317 315 314 313 313 314 315 315 312 310 311 313 314 316 316 316 316
334 334 335 334 333 333 332 333 334 333 333 333 333 333 333 332 329 328 329 330 330 330 329 329 328 328 328 327 327 327 327 326 326 325 325 324 324 325 326 327 326 326 327 327 328 329 329 329 329 329 328 327 328 327 328 330 330 331 331 331 330 329 329 328 328 327 326 324 320 318 318 317 316 314 315 316 315 313 313 314 315 316 316 315 315
334 333 333 333 333 333 331 332 332 332 333 332 332 332 331 332 328 326 328 329 329 330 329 328 328 328 328 327 327 327 327 325 324 324 323 322 322 323 324 324 324 324 324 326 327 327 327 328 329 330 329 328 327 327 328 328 328 329 330 330 331 330 330 330 329 328 328 327 324 322 323 323 321 319 318 317 316 317 316 316 315 315 315 314 313
333 333 333 334 333 332 331 330 330 331 332 331 330 330 330 331 328 325 326 328 329 329 328 328 328 329 328 328 328 329 328 327 325 323 322 321 320 320 321 322 323 324 325 325 326 326 327 328 328 328 329 328 328 328 328 328 327 327 327 329 330 331 331 331 331 330 329 329 326 323 323 325 324 323 321 319 318 318 318 317 315 315 315 313 311
332 332 332 333 333 332 331 331 331 331 332 331 329 329 330 330 328 326 327 329 328 328 327 328 328 328 329 328 328 328 328 328 326 323 320 320 320 321 321 322 324 326 327 327 326 326 327 327 327 327 328 328 328 329 328 327 327 327 327 328 328 330 331 330 330 331 330 330 329 325 322 324 326 325 324 322 320 319 319 317 316 315 315 314 311
331 330 330 332 331 331 331 331 331 331 330 330 329 329 329 328 327 327 328 328 328 328 327 328 328 329 330 329 328 328 328 328 326 322 319 319 320 321 321 321 323 325 327 326 325 325 324 325 327 328 327 326 326 328 329 328 329 328 328 329 328 329 330 329 329 329 330 330 330 328 325 322 324 325 325 323 322 320 319 318 317 316 315 315 313
331 330 329 330 329 330 330 330 330 330 330 329 329 329 328 327 327 326 327 327 327 327 327 327 328 328 330 330 329 328 328 328 326 321 319 319 320 320 320 320 321 322 324 324 323 322 322 323 325 327 328 327 326 327 327 327 327 326 326 328 329 329 329 329 329 329 329 329 329 330 328 324 323 324 324 323 322 320 319 318 317 317 317 316 315
330 329 328 328 327 328 329 329 329 329 330 330 330 329 329 329 327 326 327 327 327 326 326 326 327 328 329 328 328 328 327 328 327 322 318 319 319 318 318 319 319 320 320 321 322 322 322 324 325 326 328 327 327 326 326 326 326 324 324 324 326 328 329 329 329 328 328 328 328 329 329 328 326 325 325 324 323 321 319 318 318 317 318 318 318
325 326 325 324 323 324 325 325 326 328 329 329 329 329 329 329 328 328 328 328 327 326 326 326 327 327 328 328 328 328 327 327 327 323 319 318 317 315 315 316 316 318 318 319 321 321 323 325 325 326 327 327 327 327 327 328 326 324 324 325 325 326 327 328 328 328 328 328 328 328 329 329 329 328 328 327 325 324 322 320 319 318 319 320 320
321 323 322 321 321 321 321 322 323 326 328 328 328 328 328 328 328 328 328 329 328 327 326 326 326 326 326 326 326 327 328 327 326 324 321 319 317 315 314 314 315 315 316 316 318 320 321 322 323 324 324 325 326 326 326 326 324 321 323 325 326 326 326 326 326 326 327 328 328 329 329 329 329 329 329 329 328 327 326 324 322 320 319 320 320
321 323 322 322 322 322 323 323 323 325 327 327 327 327 327 327 327 328 328 328 328 328 327 325 326 326 326 326 325 324 325 326 326 324 322 319 315 314 313 312 312 313 312 313 314 317 317 317 318 320 321 321 322 323 324 324 323 321 323 326 327 327 327 326 326 326 326 327 328 328 329 329 329 328 329 329 329 328 327 327 326 324 322 320 320
320 322 323 322 321 321 323 324 323 323 325 326 327 327 327 327 327 327 327 327 328 327 326 326 326 326 326 326 326 325 324 325 326 325 321 316 314 314 312 310 310 310 311 311 311 312 313 313 313 314 315 316 317 319 320 321 321 321 322 324 326 327 327 327 328 328 328 328 328 328 328 329 329 329 329 329 330 330 328 327 327 326 325 324 322
319 322 324 322 318 318 321 323 323 323 324 324 325 326 326 327 327 327 326 327 328 327 327 326 326 326 326 326 326 325 323 322 322 321 318 314 313 315 314 312 311 310 310 310 309 309 310 310 310 311 312 311 312 314 315 316 316 316 317 319 323 325 327 328 328 328 329 329 329 329 328 328 329 329 329 328 329 330 330 329 328 328 327 326 325
318 320 321 320 318 319 321 323 323 323 324 324 324 325 326 327 327 327 327 327 327 327 326 326 326 326 325 324 323 322 320 318 316 314 313 313 314 315 316 315 312 311 311 309 308 308 308 308 308 309 309 309 310 310 310 311 311 312 313 315 318 321 324 326 327 326 327 327 327 327 327 328 328 328 328 329 329 329 329 330 329 329 329 328 327
318 318 319 318 318 319 320 322 322 322 322 323 323 324 324 325 326 327 327 327 327 327 326 325 326 324 321 320 320 318 317 316 313 311 311 312 314 315 315 314 312 310 310 310 308 307 307 307 307 307 308 308 308 308 308 308 309 309 310 312 314 316 319 321 322 323 324 325 325 325 325 326 328 329 329 329 329 329 329 329 329 330 330 329 329
317 317 317 317 317 319 320 321 321 321 321 321 322 323 322 323 324 325 326 326 326 325 325 323 321 318 316 316 315 314 314 312 310 310 310 311 313 315 314 313 312 310 309 310 309 307 307 306 306 306 307 307 307 307 307 307 307 308 308 308 310 311 313 315 317 320 322 323 324 325 324 325 327 327 328 329 329 330 330 330 330 330 330 330 329
317 316 316 317 317 319 320 320 320 320 319 320 321 319 318 318 319 321 322 324 323 322 321 319 316 314 312 311 310 310 308 307 306 307 308 310 313 314 314 313 312 310 308 309 308 307 306 305 305 305 306 307 306 306 306 306 306 307 307 307 308 308 309 310 312 314 316 319 322 324 325 326 326 325 325 327 328 328 328 328 328 327 328 328 327
316 316 315 317 318 318 319 318 318 318 318 319 319 317 317 316 316 316 317 318 318 317 316 314 312 310 308 306 305 304 303 303 304 306 308 310 311 312 312 312 311 309 308 308 308 308 306 304 303 304 304 305 305 306 305 306 306 306 307 307 307 307 307 308 309 309 310 313 316 319 321 323 325 326 325 325 325 326 325 325 325 325 326 326 325
314 313 312 314 317 318 318 317 316 316 316 316 316 315 315 313 312 311 312 313 313 311 310 307 305 304 303 302 301 301 301 303 305 308 309 309 309 311 311 311 310 310 309 308 307 307 307 305 302 302 302 303 304 305 305 305 306 306 306 306 306 307 307 307 307 308 308 308 310 312 314 316 319 322 323 324 324 323 323 323 323 323 324 324 324
312 311 310 310 313 314 314 313 312 312 312 314 314 313 310 307 307 308 309 309 307 305 304 302 301 301 300 300 301 303 304 305 307 307 307 307 307 310 311 311 310 310 310 309 309 307 305 305 302 301 300 300 301 303 304 304 305 305 306 306 306 306 306 307 307 307 307 307 307 308 309 310 311 314 316 318 319 319 320 319 318 318 318 319 319
312 311 309 308 309 310 309 307 305 305 307 309 309 307 304 304 305 306 306 305 303 301 300 300 300 299 300 300 303 305 306 306 307 306 307 306 307 308 309 311 310 310 309 309 309 308 305 303 302 301 300 299 299 300 301 302 303 304 305 305 306 306 306 306 306 306 306 307 306 307 307 307 308 308 309 310 311 312 313 314 314 313 312 312 312
313 312 310 308 309 308 307 303 302 301 302 303 303 303 302 303 304 304 304 303 302 302 301 301 301 300 301 303 305 306 306 306 306 305 306 306 306 307 307 309 310 310 311 309 308 308 306 302 301 301 300 299 299 298 298 299 300 301 302 303 304 305 306 306 306 306 305 306 306 306 306 306 306 307 307 307 308 308 308 309 310 310 310 310 310
311 312 310 309 309 309 308 306 304 303 302 301 303 303 302 302 303 303 304 303 303 304 303 303 303 303 304 304 305 306 305 305 305 305 305 306 307 308 307 308 309 309 310 310 308 307 306 302 301 301 299 298 299 299 297 297 298 299 299 300 301 302 304 304 305 305 305 305 305 305 305 305 305 305 306 306 306 307 307 307 308 309 309 310 310
308 310 310 310 309 310 310 309 309 307 304 303 304 305 305 304 303 303 303 303 304 304 304 303 303 304 305 306 306 306 305 305 305 304 305 305 306 308 308 308 308 308 309 309 308 306 303 301 301 300 298 297 298 299 299 297 297 297 297 298 298 299 300 301 301 301 302 302 303 303 303 304 304 304 305 305 305 305 306 306 306 307 307 308 309
307 308 308 309 310 310 310 311 311 311 309 306 306 307 308 308 306 305 304 304 304 304 304 303 303 303 305 305 305 304 304 304 305 305 305 305 305 306 307 308 308 307 307 307 307 305 302 301 301 299 297 298 298 298 298 297 296 297 297 296 297 296 297 299 300 298 298 299 299 299 300 300 301 301 302 303 304 304 305 305 305 305 306 306 307
308 308 307 308 310 310 311 311 311 312 311 310 308 308 309 309 309 308 307 306 306 306 305 304 304 304 304 304 304 303 303 303 304 306 306 306 306 306 307 308 307 305 305 305 306 305 303 301 301 299 298 298 299 298 297 297 296 297 297 296 296 296 296 298 299 297 296 297 297 297 297 297 298 298 298 299 300 301 302 303 304 304 305 305 305
310 309 308 307 309 310 310 311 311 312 312 311 310 309 308 309 310 310 309 308 308 308 307 307 306 305 305 305 304 304 304 304 304 306 305 306 307 306 306 306 305 303 303 304 305 306 304 301 300 300 299 299 299 299 298 297 297 298 298 297 297 297 296 297 298 298 296 296 296 296 296 296 296 296 297 297 297 298 299 300 301 302 303 304 304
312 311 310 309 309 310 311 310 311 311 311 311 311 310 309 309 309 310 310 310 309 309 309 309 308 307 307 306 306 305 305 305 305 305 305 305 306 306 305 305 304 303 302 304 305 305 305 303 300 299 300 300 299 299 299 299 299 299 299 298 298 298 297 297 298 297 296 296 296 296 296 296 296 296 296 296 296 296 297 297 298 299 300 301 302
314 312 311 310 310 311 311 311 310 310 310 310 311 311 310 310 310 310 310 310 310 310 310 310 309 309 308 308 307 306 306 305 306 306 305 305 306 306 306 304 304 303 302 304 305 305 305 304 301 300 299 300 300 299 299 300 300 300 300 299 299 299 298 298 297 297 297 297 296 296 296 296 296 296 296 296 296 296 296 296 296 297 298 299 299
316 314 312 311 311 311 312 312 311 311 312 312 312 311 311 312 312 312 312 311 311 311 310 310 310 310 310 309 309 308 307 307 306 306 306 305 305 305 305 304 303 303 302 304 305 305 304 303 302 301 301 301 301 300 299 299 300 301 301 301 301 300 300 299 299 298 297 296 296 296 296 295 295 296 295 296 295 295 295 296 296 296 296 297 297
316 315 313 312 312 312 313 313 313 313 314 314 314 314 314 314 314 315 315 314 312 311 311 311 311 311 310 310 310 309 309 308 308 307 306 306 306 305 305 304 303 303 302 304 305 305 305 304 303 303 302 301 301 301 300 300 301 301 300 301 302 302 301 300 300 299 298 297 296 296 295 295 295 295 295 295 296 295 296 296 295 295 296 296 296
316 316 315 313 313 314 314 314 314 314 314 315 315 314 314 315 315 316 317 316 315 314 313 314 314 315 313 312 311 311 310 310 309 309 308 307 306 306 305 305 304 303 303 303 305 306 305 305 304 304 303 303 302 302 301 301 302 301 300 300 301 301 300 300 300 299 298 297 296 296 296 296 295 295 296 296 296 295 295 295 296 296 296 296 297
316 315 314 314 314 314 315 315 315 314 314 314 314 314 314 315 316 316 316 316 316 316 315 316 315 315 315 315 315 314 313 312 311 309 308 308 307 306 306 306 304 303 302 304 305 306 306 306 305 305 305 305 304 303 303 302 301 301 300 300 301 301 300 300 300 299 298 296 296 296 297 296 296 296 296 297 296 296 296 297 297 297 298 298 298
316 315 315 315 315 315 315 314 315 314 314 313 312 313 314 314 315 316 316 316 316 316 316 316 315 315 315 315 316 316 316 314 313 312 310 308 307 307 307 307 305 303 302 303 305 306 306 306 306 305 306 306 304 302 302 301 300 300 300 300 300 300 299 300 300 300 298 296 295 296 297 297 296 296 297 297 297 297 297 298 298 297 298 299 299
315 315 315 315 315 315 315 314 314 314 314 312 311 312 313 314 315 316 316 316 316 316 316 317 317 317 317 317 317 317 317 316 316 315 314 311 308 306 306 307 306 303 302 303 305 305 305 305 304 303 304 305 304 302 301 301 300 299 299 299 299 299 299 299 299 299 298 295 294 295 297 297 296 296 297 297 297 297 297 297 296 297 298 301 302
316 315 315 315 316 316 316 314 314 314 313 312 311 312 313 315 315 313 311 310 310 311 313 314 315 316 317 317 317 317 317 317 317 316 315 313 309 306 306 306 304 302 302 303 303 303 303 304 303 302 302 303 303 301 301 300 299 299 299 299 299 298 298 298 298 298 297 295 294 296 297 297 296 296 296 297 297 296 296 295 295 296 297 300 303
316 316 316 316 316 316 316 315 314 314 314 312 311 312 314 314 311 308 306 307 309 311 312 313 315 315 315 315 316 316 316 316 315 315 314 313 309 306 305 304 302 300 301 301 302 302 302 302 302 302 302 301 302 301 299 298 298 298 299 299 298 298 298 298 297 297 296 294 294 295 296 296 296 296 296 297 296 296 296 295 294 294 295 298 302
316 316 316 316 316 316 316 315 315 315 314 312 312 314 314 311 307 306 307 308 310 311 311 312 313 313 313 314 313 313 313 313 312 311 310 310 307 306 304 302 300 300 301 301 301 301 301 301 301 301 300 299 300 299 297 296 297 297 297 297 297 296 296 296 295 295 295 294 294 295 295 296 296 296 296 296 295 295 296 295 294 294 294 296 300
316 316 316 316 316 315 315 314 315 314 312 312 314 314 312 308 307 307 307 307 307 308 309 310 310 311 311 312 312 311 311 310 309 308 308 307 306 304 302 300 299 299 300 300 300 300 300 299 299 299 298 297 297 297 296 295 295 295 295 295 294 295 295 295 295 295 296 295 294 294 295 295 296 296 296 296 295 295 296 295 294 294 295 297 300
317 316 316 316 316 315 314 315 315 314 313 315 315 312 310 308 308 307 307 307 307 307 308 308 309 309 310 310 311 310 309 307 306 306 305 305 304 302 301 299 299 299 299 299 299 299 299 299 298 298 297 296 296 295 294 294 294 294 294 294 294 295 295 296 296 296 296 296 294 294 295 295 295 295 296 295 295 295 295 295 295 295 295 297 300
316 316 316 316 316 315 315 315 315 315 316 316 314 311 310 309 308 308 308 308 307 307 307 307 307 307 308 308 309 308 306 304 304 304 303 303 302 301 300 299 298 298 298 298 298 298 298 298 297 297 296 295 295 294 293 293 293 293 293 295 295 295 295 295 296 296 296 296 295 294 294 295 295 295 295 295 295 295 295 295 296 295 295 296 297
315 315 315 316 316 316 316 316 316 316 316 314 312 310 310 309 308 308 308 307 307 307 307 306 306 306 306 306 306 307 305 303 302 303 303 302 301 301 300 299 299 298 298 297 297 296 296 296 295 295 294 294 293 293 292 292 292 292 293 294 294 294 294 295 295 295 295 295 295 294 294 295 295 294 295 295 295 295 295 295 295 295 295 295 295
315 315 315 315 316 316 315 315 316 316 314 312 311 311 310 310 308 308 308 308 307 307 306 305 305 304 304 304 304 304 304 303 303 303 303 302 302 301 301 301 300 298 297 296 295 295 294 294 294 293 293 293 293 292 292 292 292 291 292 293 293 293 294 294 294 294 295 295 295 294 294 294 294 294 294 295 295 295 295 295 295 295 295 295 295
Wind_Speed
5 4 5 5 5 3 4 6 7 6 5 5 4 4 4 4 5 5 5 5 4 5 5 6 6 5 3 3 4 4 3 3 4 4 3 1 2 2 1 2 4 4 3 1 0 1 2 3 2 2 2 1 0 1 2 3 5 7 7 5 3 3 3 3 3 3 3 3 3 3 4 4 5 5 5 6 6 6 7 7 7 7 7 7 7
4 3 3 3 3 3 3 5 7 7 6 5 4 5 5 6 6 6 6 5 5 6 7 7 7 5 4 4 3 3 3 4 3 4 2 2 2 2 1 1 3 3 2 1 0 1 1 2 2 2 2 2 1 1 2 4 6 5 5 4 5 6 6 5 4 3 3 3 3 2 3 3 4 3 4 5 5 5 6 6 6 6 7 7 6
4 3 3 3 3 2 3 5 6 7 6 5 5 5 6 7 7 8 7 6 7 9 10 10 8 6 5 5 3 2 3 3 2 5 3 2 3 3 1 1 1 2 2 1 1 2 1 0 2 2 2 2 2 2 3 4 4 3 4 4 5 7 6 7 7 6 4 3 3 3 2 2 2 2 3 4 4 4 5 5 5 6 6 6 6
5 4 4 4 4 3 3 4 6 7 7 6 6 5 6 7 8 8 7 6 7 10 11 11 9 6 4 5 4 3 2 2 1 3 5 3 2 3 3 2 2 2 2 2 2 3 3 1 2 2 1 2 2 3 3 4 3 3 4 5 5 6 6 7 8 8 6 5 5 3 2 2 2 2 2 2 2 3 4 4 4 5 6 5 6
8 6 4 3 3 3 4 5 7 9 8 8 8 5 5 7 8 8 7 6 7 8 9 9 8 6 5 4 4 3 2 2 3 2 1 3 3 2 2 2 1 2 3 4 4 4 4 3 2 2 1 1 2 3 3 3 3 2 3 6 7 7 6 6 8 8 7 6 5 4 2 2 2 1 1 1 1 2 3 3 4 4 5 5 5
9 6 4 4 4 4 5 5 8 10 9 9 8 6 5 5 7 8 7 6 6 7 8 7 7 7 6 5 4 3 1 1 1 2 1 1 3 4 3 2 2 2 2 3 4 5 5 5 4 3 2 2 2 2 3 3 4 3 3 5 7 7 7 6 7 8 7 7 6 4 3 3 2 3 2 1 1 1 2 2 3 3 3 4 4
7 7 6 6 5 5 6 5 7 9 9 9 9 9 7 5 5 7 7 6 6 6 7 8 7 7 7 6 5 4 3 2 1 1 0 1 2 4 4 4 3 4 3 3 4 5 5 6 5 4 4 3 3 3 3 2 4 4 3 5 7 7 6 6 6 7 7 6 6 5 5 3 2 3 3 2 2 0 1 1 2 2 2 3 3
7 7 7 6 5 6 6 5 7 9 10 11 10 9 7 6 6 6 7 7 6 5 6 7 8 6 6 6 5 5 4 3 3 3 3 2 2 2 3 6 7 7 6 5 5 5 6 7 6 6 5 5 5 4 4 3 4 5 4 5 7 7 6 6 7 7 6 6 7 6 5 5 4 4 5 5 3 2 1 1 1 1 2 2 2
6 6 6 6 6 6 5 5 7 8 8 9 8 6 6 9 11 8 8 8 7 6 7 7 7 6 6 6 6 5 4 3 2 2 3 3 2 2 1 4 6 8 8 7 7 7 8 9 8 8 7 7 7 6 6 5 5 5 5 6 6 7 6 7 7 7 6 6 7 6 5 6 6 7 7 6 5 4 3 2 2 2 2 2 2
6 6 6 7 6 6 5 5 8 8 7 7 6 5 5 8 11 10 9 7 7 7 8 8 6 6 6 6 6 5 3 2 1 1 2 3 2 1 1 2 3 5 7 8 8 7 8 9 8 8 8 8 8 8 7 7 7 6 6 6 7 8 8 7 7 7 6 5 6 5 4 5 6 6 7 7 7 6 4 3 3 3 3 3 3
6 7 7 7 7 6 5 6 8 9 7 6 5 5 5 6 9 11 7 5 5 6 7 7 6 5 5 5 4 3 2 3 2 2 3 3 3 2 1 2 3 5 5 7 8 8 8 9 9 8 9 10 10 10 9 8 8 8 8 8 7 7 8 8 8 7 6 5 5 6 6 6 5 5 6 7 7 6 5 4 4 4 4 4 4
6 7 8 7 7 8 8 8 9 8 7 6 6 5 6 6 8 11 8 4 4 5 5 6 6 5 4 3 3 3 4 4 4 5 5 4 3 3 2 1 3 5 5 5 5 6 7 8 8 8 8 10 11 10 9 8 8 9 9 9 9 8 7 8 8 8 8 7 6 6 8 9 7 6 6 7 6 7 7 6 5 5 5 5 5
6 7 8 8 9 9 8 8 7 6 5 6 6 6 7 8 8 10 8 7 6 5 5 7 7 6 4 3 3 3 3 3 4 6 6 4 4 3 4 4 4 4 3 4 4 4 5 5 5 6 6 7 8 8 7 7 7 8 8 9 10 10 8 7 8 8 9 9 8 7 9 10 9 8 8 7 7 7 8 7 6 6 5 6 6
6 6 8 8 8 8 7 6 5 5 5 6 7 8 8 7 8 8 8 8 6 6 7 7 6 5 4 3 3 2 3 4 5 6 7 6 5 4 4 3 2 3 3 4 5 5 5 4 4 4 5 6 6 5 5 5 5 5 5 6 7 7 8 8 8 8 8 9 11 11 10 10 10 10 9 9 8 7 8 8 7 6 6 6 6
8 9 10 9 8 8 7 6 6 5 6 6 7 8 8 7 7 7 7 7 6 6 7 6 4 4 4 3 2 2 3 5 6 9 9 8 7 5 5 3 1 2 3 4 5 6 6 6 5 5 5 6 5 4 4 5 5 6 6 6 5 4 5 6 6 7 7 8 9 10 11 11 11 11 10 10 9 8 8 8 7 7 7 7 6
9 10 11 11 10 9 8 6 6 6 6 6 6 7 7 7 8 9 8 7 6 6 7 7 5 5 3 1 1 2 2 4 7 10 11 11 11 9 7 6 4 3 2 3 4 5 5 5 6 5 4 5 5 5 5 6 7 7 7 7 6 4 3 3 4 6 6 7 7 8 10 11 12 11 11 10 10 8 8 8 8 7 7 7 7
8 9 10 11 10 9 8 6 6 6 6 6 7 7 7 7 8 9 9 9 8 7 7 7 7 7 4 2 1 1 2 6 7 7 10 12 11 10 10 10 9 8 8 7 6 4 5 5 5 5 4 4 4 5 5 5 6 7 6 6 4 3 3 2 2 4 6 7 8 8 10 11 12 12 12 12 11 10 10 9 9 8 8 8 9
6 7 8 9 8 7 7 6 6 5 5 5 6 7 7 7 8 9 8 8 9 8 7 6 6 7 7 4 3 2 4 6 5 5 8 10 11 12 13 14 14 14 14 13 11 10 10 10 9 7 7 7 6 5 5 6 5 5 6 5 4 4 3 3 2 2 4 7 8 9 10 11 12 13 13 14 13 13 12 12 11 10 10 10 10
6 6 7 7 6 7 6 5 5 5 5 5 6 7 7 8 8 9 8 7 7 7 7 8 6 5 5 4 3 5 7 6 4 5 7 7 11 15 17 18 20 19 17 16 16 17 16 16 14 13 12 12 11 9 9 8 6 5 6 6 6 5 4 3 3 3 4 5 7 9 10 11 12 13 15 17 17 16 15 14 13 12 12 12 12
6 6 6 6 5 5 4 4 5 6 7 7 7 7 7 7 7 7 7 6 6 6 7 9 8 7 5 4 4 6 7 5 5 6 6 6 8 12 17 22 24 23 20 19 20 21 20 19 17 16 17 17 16 15 14 13 11 10 10 8 6 6 5 5 4 3 2 3 4 7 9 10 12 13 16 18 19 19 17 16 15 15 16 15 14
6 6 7 6 4 3 3 4 5 7 8 9 8 7 6 6 6 6 7 7 5 5 7 8 9 9 7 6 6 7 8 7 6 6 7 6 6 7 11 16 20 20 19 19 19 20 20 19 17 16 17 18 17 17 16 16 15 14 12 10 7 6 5 5 6 6 5 4 3 2 3 5 8 11 15 17 18 20 21 19 18 18 18 17 17
6 5 6 5 3 3 4 6 7 8 9 9 8 7 7 6 6 7 8 8 6 6 7 8 8 9 8 9 9 9 8 7 7 7 6 6 7 8 9 10 12 13 15 17 17 17 17 18 17 16 16 16 16 16 16 16 15 14 13 11 9 8 6 6 6 7 7 6 6 7 5 2 3 6 9 12 14 18 20 20 20 20 19 18 18
6 5 5 4 3 4 6 8 8 9 9 8 8 8 9 9 8 8 8 8 8 8 8 8 9 10 10 9 8 7 7 6 6 6 7 8 8 8 9 10 11 11 12 14 15 16 16 17 17 16 16 16 15 16 16 16 14 13 13 12 11 11 9 7 7 7 8 7 6 6 6 5 3 3 4 6 10 13 15 16 17 17 16 16 18
7 6 5 4 4 4 6 8 8 8 8 7 9 11 12 13 12 12 11 11 12 12 12 13 13 14 12 10 9 8 7 7 7 6 7 9 11 10 10 10 10 10 9 10 13 15 16 15 16 16 16 17 17 16 17 16 13 12 13 13 13 13 12 11 10 9 8 7 6 6 5 5 4 3 2 1 6 10 11 12 13 14 15 17 19
7 6 5 4 4 5 6 6 7 7 7 8 10 12 13 14 14 15 15 15 15 15 15 16 15 14 13 11 11 10 10 10 10 9 9 11 12 11 9 8 9 10 7 7 9 12 15 15 14 14 15 17 17 18 18 17 14 13 13 14 14 14 13 13 12 11 10 8 7 6 6 5 4 3 3 2 0 3 5 7 8 9 10 11 13
7 6 5 4 4 5 5 5 6 6 7 8 10 12 12 12 13 14 15 15 15 14 15 14 13 12 12 13 13 13 13 12 11 10 10 10 12 13 11 8 9 10 8 7 8 8 11 13 13 13 14 17 17 18 19 18 16 15 15 16 17 16 15 14 13 12 11 10 8 6 6 6 5 3 3 3 2 0 1 3 3 3 4 6 7
7 6 4 4 5 5 4 4 5 6 8 9 10 10 9 10 12 12 13 13 13 12 12 12 12 12 13 14 15 14 14 14 13 12 10 10 12 14 13 10 7 7 8 8 9 9 8 9 12 13 13 15 16 16 18 17 16 16 16 18 19 18 17 15 15 14 13 12 10 9 7 6 6 4 3 2 2 1 1 2 3 3 4 5 6
6 5 4 4 5 5 4 4 5 6 8 9 9 8 8 9 11 12 13 12 12 12 13 13 13 13 13 14 15 15 15 15 15 15 15 14 12 11 9 9 8 6 5 5 7 9 8 7 10 12 12 13 13 14 15 15 15 16 17 18 19 18 17 16 15 15 14 13 13 12 11 10 8 7 5 4 3 3 2 3 4 5 6 7 8
5 4 4 5 6 5 5 5 6 6 7 7 7 7 9 10 12 12 12 12 13 13 13 13 13 14 14 16 17 16 16 15 14 15 16 17 15 11 7 6 6 5 5 4 4 6 7 7 7 9 10 11 12 12 12 12 12 14 15 16 17 16 16 15 15 15 14 14 13 13 12 11 10 9 8 8 7 6 4 3 4 6 7 8 9
6 5 4 5 6 6 6 6 6 7 7 7 8 8 9 11 12 12 12 12 13 13 13 13 14 14 15 16 17 16 15 13 13 13 13 15 15 14 12 9 7 6 6 5 4 4 6 7 7 8 9 10 11 11 12 11 10 11 12 13 13 13 13 13 13 14 13 13 13 12 12 11 11 10 9 8 8 8 7 5 4 4 6 7 9
7 7 6 5 6 6 6 7 7 7 7 8 8 8 9 10 11 11 11 11 11 12 12 12 13 13 14 15 15 14 13 11 10 10 10 11 12 12 12 12 10 9 7 6 5 4 4 6 6 7 8 10 10 10 12 11 10 10 11 11 10 10 10 10 11 11 11 11 11 10 10 10 10 9 8 8 7 7 7 7 6 5 5 6 7
7 8 8 6 6 6 6 6 6 6 6 6 7 7 8 9 9 10 10 10 10 10 10 10 10 11 11 12 12 11 10 9 9 9 9 10 10 10 10 11 11 10 8 8 8 6 4 5 5 5 8 10 10 10 11 11 11 11 11 11 10 10 10 10 9 9 9 9 9 9 9 9 9 8 8 7 7 7 7 7 7 7 7 7 7
7 7 9 8 8 7 6 5 5 5 4 5 5 5 6 6 7 8 8 8 8 9 9 9 9 10 10 9 9 9 8 8 8 8 8 9 9 9 9 9 9 8 8 8 9 8 5 5 5 5 7 9 9 10 11 12 12 12 12 12 12 12 12 10 9 10 9 9 10 10 10 10 10 10 9 9 8 8 8 9 9 9 9 9 9
10 8 8 9 9 8 7 6 5 5 5 4 4 4 4 3 3 4 5 5 6 6 7 8 8 9 8 8 8 8 7 7 7 7 7 8 8 8 7 7 8 8 7 7 8 8 6 5 5 5 7 9 8 9 11 12 13 11 11 13 14 14 14 12 9 10 11 10 10 11 11 12 12 12 12 11 11 10 10 11 11 11 11 11 11
13 12 10 10 10 9 9 8 7 6 6 5 4 4 3 3 2 2 2 3 4 4 5 6 6 7 7 7 7 7 7 7 6 6 7 7 7 7 7 7 8 8 8 7 7 7 7 6 5 4 5 7 7 7 8 10 13 11 10 12 15 16 17 15 10 9 11 10 10 11 12 13 13 13 13 13 13 13 12 13 13 13 13 14 13
16 15 14 13 12 11 11 10 9 8 6 6 6 6 5 5 5 5 6 6 6 5 5 5 5 6 7 7 7 7 6 7 7 6 7 7 7 7 7 7 7 7 8 8 8 7 7 6 5 4 4 4 5 6 6 6 9 10 8 9 13 15 18 17 12 11 13 13 13 14 15 15 14 13 13 13 13 13 13 13 14 14 14 15 15
18 17 16 15 14 13 12 10 8 7 6 6 5 4 4 4 5 7 8 9 10 9 9 8 7 7 7 8 8 8 8 8 8 8 8 8 7 7 7 7 6 6 6 7 7 6 6 6 5 4 4 3 3 5 7 6 5 7 7 5 7 13 18 19 14 14 17 18 18 19 20 20 18 15 14 13 13 13 13 13 13 14 15 15 16
20 18 17 16 16 15 13 10 8 6 4 2 2 2 3 4 6 9 11 12 12 12 12 11 11 10 11 10 10 10 10 10 10 10 9 9 8 8 7 7 6 6 5 6 6 6 6 6 5 4 3 3 3 3 6 8 7 7 8 6 5 9 15 16 13 13 17 20 22 24 24 23 21 19 16 14 13 13 13 13 13 13 14 15 16
20 19 18 17 16 14 12 10 8 7 4 0 2 2 4 6 8 12 13 13 14 14 14 13 13 13 13 14 13 13 14 13 13 13 12 12 11 10 9 8 7 7 6 6 5 5 5 4 3 3 2 2 3 3 6 9 7 7 11 10 8 9 12 14 11 9 13 18 20 22 23 23 23 22 20 17 15 16 15 13 13 13 13 14 14
20 19 18 18 17 13 12 10 9 9 7 4 5 6 7 8 10 13 13 13 14 15 15 15 16 16 16 16 16 16 16 16 16 15 15 15 13 13 12 10 10 9 8 7 5 4 4 3 2 1 1 1 2 3 5 7 6 7 11 12 11 12 15 14 10 8 11 15 16 16 16 17 19 18 16 15 15 17 16 13 12 13 12 13 13
20 19 18 19 18 14 10 8 7 7 8 6 8 10 10 8 11 13 12 12 12 14 15 16 17 17 17 17 18 18 18 17 17 17 18 17 16 16 14 13 13 12 9 8 6 5 4 3 2 1 1 1 1 2 3 5 5 7 9 10 10 12 15 15 11 8 12 17 19 16 12 12 15 14 10 9 12 15 14 11 11 12 12 12 12
20 20 19 19 20 14 5 8 11 11 12 12 11 11 11 11 14 15 14 14 13 13 14 15 15 15 16 17 18 19 18 18 17 17 18 19 19 19 16 14 14 13 11 9 6 4 4 2 1 1 3 2 1 2 2 3 5 6 6 8 9 11 13 15 12 9 12 20 23 20 14 12 14 13 9 8 11 11 9 9 10 11 11 12 11
20 19 18 20 23 18 16 22 23 19 19 20 19 18 16 14 15 15 14 13 12 12 13 13 13 14 15 16 17 18 18 18 17 17 17 18 20 21 19 15 14 13 11 9 7 5 3 2 1 2 3 3 1 1 2 2 4 5 6 7 8 9 10 12 13 11 12 20 24 20 16 13 12 12 10 8 8 8 9 10 11 10 10 10 9
24 22 23 27 28 24 24 28 27 23 21 20 22 23 18 14 11 10 10 10 11 12 12 12 12 13 14 14 15 15 16 16 16 16 15 15 17 21 20 16 14 13 10 9 7 5 3 3 3 4 4 4 3 2 2 3 4 5 6 6 7 8 9 10 12 11 12 19 21 17 16 14 10 11 11 8 8 10 12 14 13 11 10 8 7
28 27 29 31 31 28 25 24 25 25 24 22 22 21 15 9 7 6 7 8 9 8 8 8 8 9 10 11 10 10 11 11 12 12 13 11 13 19 20 16 15 14 11 9 7 5 4 4 4 5 6 5 4 4 5 5 5 5 7 7 7 8 9 9 12 14 15 17 16 14 17 15 9 10 12 9 9 11 13 15 14 12 11 9 6
29 30 31 31 30 27 23 23 25 26 24 22 20 16 11 8 6 4 4 4 3 2 1 1 1 2 4 5 5 5 5 5 6 7 8 9 11 16 18 17 16 15 12 10 8 7 6 6 5 6 7 7 5 5 6 6 6 5 6 8 9 10 11 13 16 18 17 14 10 10 16 15 11 10 12 11 12 12 12 15 14 10 10 9 6
29 31 32 31 28 24 22 23 26 25 23 20 17 14 12 10 7 6 6 5 5 5 4 4 4 4 3 3 3 3 3 3 4 4 5 6 10 16 18 17 16 14 11 10 9 8 7 8 7 7 8 7 5 5 6 6 6 7 9 10 12 12 13 15 16 15 13 10 7 8 14 15 12 12 12 12 13 14 12 14 14 10 9 9 8
30 31 30 27 25 23 22 22 23 22 20 18 17 17 14 11 9 8 6 6 6 6 6 6 6 5 5 5 4 4 4 5 4 3 1 3 10 16 17 15 13 10 8 7 7 7 6 7 6 6 6 6 5 6 7 7 7 8 9 10 11 11 12 13 13 13 11 8 7 9 14 15 12 12 14 14 14 15 14 13 13 12 11 10 9
27 28 27 25 23 23 22 21 20 19 17 18 20 18 14 11 10 8 6 6 6 6 6 6 6 6 6 6 5 5 5 4 3 3 3 5 9 12 12 11 9 7 6 5 4 4 4 4 4 5 5 6 7 8 8 8 9 8 8 9 9 9 11 13 13 12 12 11 11 11 13 13 12 12 15 15 14 16 15 12 11 11 12 12 12
21 23 23 22 21 21 21 20 19 19 20 22 21 17 14 12 10 9 7 7 6 6 6 6 6 6 6 6 6 5 4 3 3 3 3 5 6 7 8 8 6 5 4 3 2 3 3 4 4 5 6 7 7 8 8 9 10 9 8 8 9 10 12 13 13 14 14 14 11 8 10 13 12 12 15 16 15 14 13 11 9 9 10 12 13
17 21 22 20 19 18 17 18 20 22 23 23 19 16 14 13 11 10 9 7 7 6 5 5 6 6 6 5 5 4 3 3 3 3 4 4 4 4 4 5 5 4 4 3 2 2 3 3 4 5 6 7 8 9 10 11 12 11 9 9 9 11 13 14 15 14 13 11 7 6 10 14 14 13 14 14 13 11 9 9 10 11 13 14 15
Wind_Direction
215 206 188 174 170 165 178 190 186 182 177 166 154 150 154 145 142 135 116 103 96 106 129 161 167 154 161 155 141 159 189 227 248 267 289 11 45 37 119 155 151 160 151 120 226 237 216 219 229 213 221 240 234 298 287 303 335 342 333 331 347 4 12 11 21 34 28 28 53 70 72 80 77 74 80 84 85 81 86 90 88 93 96 96 97
222 217 191 161 161 168 168 183 186 183 179 168 152 148 151 141 137 128 109 95 85 105 133 161 171 166 180 191 175 187 233 248 262 276 310 52 56 46 58 180 156 157 152 113 270 235 195 227 243 233 241 249 233 266 281 294 319 336 334 340 352 354 359 3 1 1 360 6 23 46 63 70 71 71 76 80 84 81 81 88 88 92 96 94 97
238 223 178 159 175 198 184 186 192 183 174 163 150 150 149 143 140 129 113 105 101 118 137 154 165 167 184 193 182 193 241 246 274 279 279 36 40 47 24 298 212 176 185 214 295 261 225 208 216 223 256 263 257 243 245 272 293 316 316 320 339 344 348 353 350 344 342 343 348 8 39 57 61 68 77 78 82 86 86 89 93 97 95 91 91
233 205 178 184 193 215 212 201 206 196 178 161 157 160 154 147 142 129 123 125 119 125 136 142 145 146 160 172 173 176 192 179 187 256 256 279 339 28 30 360 319 305 279 264 283 266 256 261 192 193 229 258 264 251 244 259 258 271 289 291 309 326 336 346 346 338 330 328 333 342 8 15 22 48 71 85 93 95 94 94 97 100 95 91 91
233 213 191 215 214 215 225 213 207 200 185 168 161 162 165 153 142 137 143 146 130 127 132 130 126 128 140 145 152 154 140 137 128 139 219 275 262 276 350 16 331 320 310 288 285 270 260 268 260 230 223 242 260 259 259 253 230 227 263 280 293 304 312 328 339 335 319 313 324 326 324 340 353 8 17 57 93 95 93 95 107 107 97 98 99
240 226 214 228 221 213 225 214 201 197 186 177 169 167 175 159 147 155 166 165 151 139 135 135 130 131 137 136 147 157 156 176 117 122 139 277 223 242 286 302 284 280 294 296 287 272 258 261 271 270 261 256 252 279 295 253 236 231 228 263 283 294 297 304 324 332 322 302 302 308 308 314 323 325 332 359 33 90 98 98 113 116 109 111 110
233 219 218 215 207 212 220 208 195 194 187 186 187 181 178 168 165 174 175 173 167 151 137 141 144 138 133 129 137 144 150 163 71 62 296 275 231 249 259 247 251 258 269 299 294 274 259 256 263 268 271 276 265 270 290 260 251 258 244 259 278 290 291 292 305 322 325 306 289 287 299 306 296 304 312 310 316 358 128 135 127 122 130 129 125
230 215 215 208 205 213 215 201 190 193 193 193 196 192 184 175 175 182 187 185 178 160 141 142 148 143 138 138 138 131 121 108 83 57 34 19 323 300 263 242 248 258 267 291 303 290 274 263 257 261 266 275 281 279 277 269 261 261 254 259 279 290 282 276 290 304 317 314 295 277 283 303 291 291 305 304 301 289 267 204 170 168 161 161 152
228 215 209 207 204 207 208 189 182 188 192 191 191 194 184 172 171 185 203 189 174 162 146 142 150 146 144 152 151 142 128 106 81 53 36 29 16 4 305 250 255 268 274 284 294 292 288 281 274 274 274 274 279 285 288 283 274 261 251 243 253 274 277 272 275 282 295 306 304 285 277 300 299 293 299 299 299 296 280 244 217 211 191 198 186
205 198 196 201 192 197 199 175 171 174 175 179 186 196 193 179 172 185 207 190 167 164 156 150 155 153 150 154 151 144 142 129 93 52 41 25 18 4 285 270 281 294 284 280 288 297 305 303 299 298 293 288 281 278 284 286 289 284 271 256 238 242 257 271 275 273 278 285 293 286 278 303 306 296 297 294 292 290 279 252 232 229 220 221 207
175 176 179 188 182 185 182 164 166 163 158 162 175 191 202 190 158 155 183 198 172 166 161 152 148 146 150 155 147 130 119 115 106 75 58 42 37 26 298 278 308 325 306 287 290 300 313 310 304 308 307 306 302 294 289 284 290 292 285 285 275 252 245 256 270 275 275 277 284 276 269 288 303 298 297 293 281 269 267 255 240 240 234 229 224
150 156 162 172 170 170 169 166 164 155 150 156 167 184 192 180 141 138 160 176 151 154 155 146 134 127 137 152 130 101 92 94 87 74 67 58 53 43 22 360 342 339 328 314 306 307 317 316 307 312 316 318 322 320 303 282 276 282 284 289 291 284 268 258 261 263 263 267 284 285 272 272 280 285 289 291 278 258 255 254 249 247 239 234 233
141 147 154 159 152 152 158 160 157 151 149 147 156 174 182 173 144 136 153 153 141 147 149 144 140 136 139 143 118 94 84 83 75 70 70 64 53 38 32 27 4 352 349 348 353 344 336 331 324 328 336 335 333 329 315 296 285 287 290 290 290 291 291 286 271 264 260 257 257 265 269 268 268 271 278 282 278 261 250 253 262 263 251 244 241
128 138 148 150 144 145 151 154 163 167 153 137 141 156 168 174 162 146 145 147 148 155 158 158 161 164 164 155 143 119 86 86 77 66 72 76 64 44 40 36 336 324 346 352 353 349 339 331 336 345 349 353 349 335 334 343 334 327 326 316 309 302 296 292 283 276 269 262 255 247 248 259 265 264 266 270 274 269 255 254 266 272 268 259 252
115 124 130 131 131 139 143 145 158 159 143 133 137 151 162 173 180 170 154 149 152 168 183 189 181 170 173 174 165 145 108 93 75 65 73 79 75 69 66 74 54 307 322 336 331 320 318 319 332 350 350 355 6 357 357 9 359 358 9 3 354 333 303 288 283 282 275 273 273 259 244 245 256 260 262 266 270 274 268 263 266 266 267 265 258
107 113 115 113 113 122 129 130 134 135 134 137 143 158 169 175 180 175 165 158 159 176 196 200 189 171 166 133 126 173 135 105 83 72 79 81 78 79 78 83 81 60 22 360 337 320 325 328 331 348 352 350 1 2 359 2 1 9 17 14 13 1 326 288 265 262 263 266 274 273 259 247 248 252 254 259 264 271 274 271 269 263 261 261 258
96 104 108 108 108 114 120 120 121 128 136 145 152 159 168 176 178 174 171 166 163 168 181 193 193 187 178 133 135 196 134 127 117 87 83 78 72 71 69 75 80 76 71 60 49 38 35 28 12 10 7 357 360 4 6 11 15 20 20 18 20 10 357 348 282 254 253 251 251 261 264 257 251 249 247 248 251 256 261 264 264 263 260 256 252
92 105 110 108 109 112 113 115 117 129 145 149 151 154 158 165 165 164 165 160 157 157 160 172 182 187 190 190 193 177 141 148 153 119 97 75 64 67 69 75 81 77 71 67 69 72 68 59 51 43 35 30 26 25 30 30 22 12 9 13 16 6 358 356 337 298 268 254 246 245 254 261 259 255 249 245 245 244 246 251 255 259 261 259 253
104 116 121 115 112 115 114 114 115 126 145 147 146 148 151 156 156 156 157 154 155 155 156 159 155 163 178 182 171 155 148 156 166 149 127 85 68 73 73 77 82 79 72 70 73 78 77 69 62 59 57 53 50 50 50 47 37 23 19 20 22 16 7 357 336 317 293 269 253 237 238 248 253 256 253 250 249 244 240 244 248 252 256 258 258
107 121 135 128 109 110 117 117 115 121 129 134 139 142 147 152 153 154 155 155 160 158 158 161 154 145 143 140 138 142 144 145 152 151 142 118 91 84 78 76 77 76 73 71 72 76 77 71 64 64 65 63 61 61 60 58 55 47 40 35 35 33 29 33 36 18 341 305 275 249 238 235 241 252 255 253 251 246 241 241 244 248 249 252 256
114 123 137 132 108 98 114 126 125 122 124 127 130 132 139 148 153 157 155 155 157 154 153 155 152 147 144 139 128 120 116 112 118 123 124 129 125 113 99 83 73 68 68 70 68 69 71 68 63 61 63 62 61 62 61 60 57 52 45 40 43 49 54 65 70 64 62 56 38 345 274 242 239 249 254 255 252 248 246 245 246 249 248 249 253
125 125 131 131 120 110 121 135 136 127 125 128 128 127 131 139 149 156 158 154 146 142 143 141 144 148 146 139 131 125 121 115 115 117 118 125 129 131 125 104 85 70 64 65 65 63 64 63 61 58 58 57 57 60 60 59 56 51 42 34 35 44 57 70 73 72 72 66 58 51 40 360 278 266 263 261 256 251 250 249 250 252 250 249 253
128 125 125 118 110 115 125 134 136 130 127 124 120 118 119 124 130 137 146 149 140 134 134 131 134 142 144 140 136 133 133 130 132 135 134 135 136 135 126 113 103 90 74 67 65 63 61 59 57 56 56 56 58 61 62 61 57 51 43 34 31 33 37 45 52 62 68 65 59 54 48 40 19 337 291 270 260 254 253 253 255 257 255 252 255
128 126 124 112 108 117 124 129 131 132 130 120 116 115 115 116 118 121 125 131 133 131 129 129 133 138 138 135 129 122 120 123 128 134 138 141 141 137 131 125 112 102 94 81 70 64 61 58 56 55 56 59 62 65 65 63 59 53 48 42 38 35 33 31 31 40 53 58 57 54 51 53 51 38 31 267 256 254 254 259 261 260 256 252 254
132 130 124 117 123 126 126 127 129 133 130 121 119 117 115 115 115 116 116 120 125 127 128 131 135 136 134 130 124 118 117 120 123 124 126 135 138 135 132 129 119 113 108 98 87 72 62 58 57 56 57 62 67 69 67 65 62 58 55 52 48 46 42 35 30 32 39 46 48 50 51 54 65 64 63 78 215 247 245 252 258 258 256 253 257
137 132 126 129 137 138 140 142 141 142 136 130 127 123 119 119 119 118 118 121 126 128 130 134 136 134 133 130 124 119 116 117 118 120 126 133 138 137 131 123 120 119 110 97 95 83 68 61 57 56 60 66 70 73 70 68 67 64 62 62 60 58 57 54 52 50 50 51 50 48 44 43 55 66 60 69 77 83 225 246 254 253 253 255 261
144 136 133 144 151 156 160 156 151 145 140 137 134 129 125 125 126 125 125 128 131 133 134 134 132 130 131 128 122 118 116 115 111 108 114 128 139 143 140 135 128 123 118 104 87 75 72 69 60 54 59 67 71 74 73 70 70 69 67 68 68 66 66 66 67 67 66 66 65 65 61 52 51 53 48 42 38 32 346 316 311 295 276 271 269
155 143 141 149 154 160 164 160 153 145 145 145 138 134 132 129 129 129 130 133 134 133 131 130 129 129 130 127 122 118 115 112 107 102 102 112 128 142 149 148 142 132 127 113 89 72 65 69 64 53 53 64 71 76 75 71 70 71 69 71 72 71 71 71 71 71 70 69 69 69 71 69 64 59 54 42 24 8 345 326 318 309 296 287 282
179 164 153 149 146 147 147 143 138 135 138 140 135 131 129 127 128 127 130 132 130 128 128 129 130 129 129 126 121 118 114 108 103 100 98 99 104 109 117 129 136 137 128 107 92 76 61 56 60 53 50 60 69 75 76 70 68 71 70 71 73 72 72 73 73 72 72 70 68 67 68 69 68 65 60 56 50 40 23 351 320 306 295 288 284
200 190 174 158 148 140 136 129 123 123 123 122 119 119 119 121 123 124 126 127 125 124 124 127 128 128 128 126 122 118 115 109 103 101 100 98 96 96 93 88 88 103 118 111 96 75 63 57 56 54 51 56 65 71 73 70 67 70 69 67 68 68 68 70 71 70 68 67 66 64 63 63 63 63 59 53 49 44 37 26 360 325 304 293 287
204 200 191 174 159 142 133 129 121 117 118 117 114 111 115 116 117 119 122 123 122 120 121 123 125 126 127 126 125 122 118 114 108 105 104 104 101 97 93 88 85 86 97 111 105 79 61 60 60 57 55 59 65 67 68 66 64 65 66 64 62 59 57 56 58 58 56 55 53 51 50 50 49 50 50 43 35 29 26 21 13 358 336 314 299
201 202 199 189 177 163 150 141 129 120 120 121 115 109 113 115 116 119 120 121 123 122 123 124 124 128 131 130 130 128 123 118 115 112 109 110 109 106 101 96 92 89 89 98 105 103 86 73 74 67 60 61 62 64 67 66 65 64 62 60 58 54 50 43 37 36 36 32 29 26 23 21 20 19 18 18 12 6 2 359 356 353 348 339 327
205 207 205 200 192 184 175 165 153 146 142 137 130 119 116 115 118 124 127 128 130 130 133 134 134 137 138 140 141 137 132 128 125 122 121 119 116 112 109 104 97 92 91 96 105 115 113 94 90 79 68 66 62 63 68 69 68 66 61 58 55 49 49 43 29 23 23 19 14 10 4 358 354 351 347 343 340 338 334 332 330 328 329 330 329
211 212 212 207 202 200 196 192 187 185 185 178 166 152 145 137 130 134 141 145 145 142 142 146 150 150 148 151 151 145 142 141 140 139 136 136 132 126 119 115 108 99 95 100 105 114 123 117 110 94 75 73 69 62 63 64 63 62 57 54 52 46 44 45 36 22 20 19 14 10 4 356 348 341 336 329 324 321 318 317 313 311 311 311 314
215 213 215 212 206 206 207 207 206 205 206 207 206 202 197 198 209 222 218 200 190 180 168 164 167 168 168 171 171 165 162 159 160 161 155 151 148 142 135 126 120 108 101 105 106 112 125 125 122 116 86 75 70 61 58 54 50 50 49 45 43 38 34 37 40 26 20 19 16 12 7 360 352 343 336 328 322 316 312 310 307 304 303 301 301
224 216 212 212 211 209 210 212 211 209 210 215 222 228 232 240 250 257 263 259 251 244 231 214 206 202 196 195 199 195 188 187 186 183 175 168 161 155 148 136 127 115 103 102 102 106 122 128 124 119 99 83 71 53 47 41 35 36 40 36 35 31 25 26 29 18 13 12 10 7 3 358 354 346 338 330 323 317 311 308 305 302 300 297 296
229 224 215 212 211 210 210 207 201 198 200 209 221 235 247 261 279 285 282 275 269 265 261 255 248 243 234 225 223 220 215 213 210 205 199 189 180 172 165 154 145 132 114 104 98 100 114 126 129 117 94 84 72 45 37 34 23 20 21 20 23 19 15 17 16 8 5 4 0 359 359 357 354 351 346 336 326 320 315 311 306 301 298 295 293
230 226 220 215 212 211 209 200 190 181 174 198 234 254 274 287 304 308 301 290 282 275 270 268 263 260 257 251 245 239 235 233 231 226 218 210 203 196 189 179 168 157 140 120 105 103 109 117 126 123 100 72 62 44 24 22 24 20 13 4 359 3 5 7 6 0 359 358 355 354 355 356 355 353 352 346 336 330 324 318 312 305 301 297 293
229 223 220 217 213 208 199 188 183 179 169 74 351 325 304 300 310 315 306 295 288 282 278 277 275 271 267 262 257 251 247 245 245 241 233 225 219 216 213 203 191 180 166 145 124 116 116 118 119 117 118 62 37 29 11 13 20 19 12 5 353 350 354 357 355 353 353 351 350 348 348 352 354 352 351 351 345 339 333 322 316 313 307 303 299
228 222 214 206 198 189 178 168 169 184 201 251 302 309 310 307 315 317 305 291 282 278 276 276 276 276 272 269 266 261 257 255 253 251 245 237 228 220 219 216 209 198 181 165 151 140 132 132 129 119 159 157 26 15 10 15 15 6 5 360 349 344 345 346 345 344 348 348 345 341 339 344 349 348 347 347 341 338 337 330 323 320 316 313 309
227 216 203 193 182 170 162 164 174 200 224 249 282 293 293 300 316 316 300 286 276 269 268 268 268 270 269 269 270 269 268 266 261 257 253 248 239 229 224 222 215 205 191 179 171 164 162 161 162 199 270 246 38 19 16 19 7 353 353 351 344 339 337 338 336 334 341 343 341 338 333 333 339 342 340 335 333 337 341 337 325 321 322 322 318
219 202 194 191 183 177 200 235 226 224 234 247 259 264 265 284 305 300 285 278 272 264 265 265 264 266 265 266 270 271 273 273 267 262 257 251 246 240 238 236 224 211 199 192 187 182 184 184 175 270 305 308 13 21 5 360 349 342 343 342 338 334 333 334 333 330 334 338 338 336 329 326 332 336 331 323 330 338 339 326 313 315 325 327 323
205 202 208 208 206 216 242 246 237 224 225 236 233 225 240 275 291 283 272 269 266 261 262 261 262 264 265 267 269 270 272 273 273 270 262 254 247 240 240 243 235 221 212 205 201 199 198 208 222 252 292 296 301 333 329 329 330 329 332 329 326 329 331 328 325 323 326 332 333 329 322 323 327 327 325 320 324 328 323 313 303 303 319 327 324
207 218 227 225 226 236 242 237 230 218 214 221 216 216 239 269 273 264 261 259 259 260 261 264 269 273 274 275 274 271 271 271 272 274 270 262 247 235 232 234 226 217 214 214 215 217 221 238 242 240 256 270 271 268 273 298 309 313 317 315 315 320 319 313 312 310 314 324 328 320 313 316 317 317 319 314 312 315 315 315 310 297 299 313 317
214 221 224 223 225 233 235 224 215 213 215 216 215 223 242 250 235 242 254 251 254 260 264 272 279 282 284 284 282 278 272 267 268 273 274 269 247 229 223 218 210 205 209 217 223 230 239 243 239 235 247 259 264 256 261 285 302 307 310 311 310 310 306 300 301 302 305 314 320 312 308 311 311 310 312 308 308 312 310 315 318 301 284 286 291
218 218 217 218 222 229 230 215 208 212 216 213 216 222 219 200 192 197 201 203 201 193 207 303 319 313 308 299 297 296 284 275 276 277 276 269 242 219 208 202 199 202 209 218 224 233 241 243 240 242 252 255 253 260 275 292 304 302 299 304 306 303 299 298 299 300 299 299 302 302 302 305 308 305 304 305 308 308 304 310 318 307 284 274 264
219 216 213 216 223 229 224 213 210 211 210 208 209 201 184 173 163 148 138 121 106 103 94 82 73 57 38 14 351 348 344 328 317 303 283 257 222 202 193 192 195 201 211 220 228 236 241 244 245 245 250 252 250 266 288 302 305 300 300 302 303 299 297 298 298 297 293 281 274 290 296 297 301 299 297 303 305 302 300 304 308 301 282 267 253
219 215 214 220 228 225 216 210 208 206 206 203 193 180 170 163 156 146 131 113 107 101 97 92 84 75 64 48 40 34 21 3 350 352 351 202 193 187 184 188 194 201 213 223 234 247 252 253 254 254 256 265 276 284 294 301 300 302 305 301 298 296 294 295 294 294 293 279 267 283 292 293 296 295 295 301 302 298 295 297 297 286 269 259 255
224 219 220 224 224 216 210 206 201 198 196 188 179 173 167 160 158 154 139 128 120 106 98 91 81 76 70 58 57 57 48 40 53 78 101 154 180 185 187 190 193 197 208 220 236 253 262 266 270 273 276 283 289 291 296 298 296 300 301 295 296 299 296 295 295 295 295 289 280 281 285 288 294 296 297 299 298 294 291 289 288 280 268 264 267
232 232 227 218 212 209 207 199 187 179 177 176 175 173 166 161 162 160 152 144 133 117 100 88 78 75 69 62 62 64 73 103 132 143 152 164 177 187 191 186 177 176 193 212 234 260 279 288 288 291 292 291 290 290 293 293 293 297 297 292 297 300 294 292 295 296 295 291 281 271 278 289 295 296 298 300 297 289 284 281 281 282 283 286 286
225 232 227 217 207 201 195 184 172 167 170 173 173 171 167 166 168 164 158 153 143 129 111 99 94 90 82 76 76 76 94 136 162 182 187 185 186 187 181 166 153 162 190 207 223 253 275 284 286 290 291 289 290 291 290 290 293 295 292 286 290 293 290 290 293 293 292 291 278 266 284 294 295 291 294 299 299 292 283 278 281 287 291 293 291